Weather History for Albany, NY

Change the Weather History Date:

Wednesday, May 9, 2012

  Actual Average Record
Temperature  
Mean Temperature 63 °F 56 °F  
Max Temperature 69 °F 67 °F 93 °F (1979)
Min Temperature 57 °F 45 °F 27 °F (1956)
Degree Days  
Heating Degree Days 2 9  
Month to date heating degree days 70 94  
Since 1 July heating degree days 5240 6487  
Cooling Degree Days 0 0  
Month to date cooling degree days 1 0  
Year to date cooling degree days 9 4  
Growing Degree Days 13 (Base 50)    
Moisture  
Dew Point 57 °F    
Average Humidity 81    
Maximum Humidity 100    
Minimum Humidity 61    
Precipitation  
Precipitation 0.08 in 0.11 in 0.94 in (1961)
Month to date precipitation 2.77 0.97  
Year to date precipitation 10.54 12.14  
Snow  
Snow 0.00 in 0.00 in 1.60 in (1977)
Month to date snowfall 0.0 0.1  
Since 1 July snowfall 23.3 59.1  
Snow Depth 0.00 in    
Sea Level Pressure  
Sea Level Pressure 29.70 in    
Wind  
Wind Speed 4 mph (South)    
Max Wind Speed 15 mph    
Max Gust Speed 20 mph    
Visibility 8 miles    
Events Rain    
T = Trace of Precipitation, MM = Missing Value Source: NWS Daily Summary

Daily Weather History Graph

Daily Weather History Graph

Search for Another Location

Airport:

Trip Planner

Search our weather history database for the weather conditions in past years. The results will help you decide how hot, cold, wet, or windy it might be!

Date:

Astronomy

May. 09, 2012 Rise Set
Actual Time 5:38 AM EDT 8:05 PM EDT
Civil Twilight 5:06 AM EDT 8:37 PM EDT
Nautical Twilight 4:27 AM EDT 9:16 PM EDT
Astronomical Twilight 3:43 AM EDT 10:01 PM EDT
Moon No Moon Rise 8:49 AM EDT (5/9)
Length of Visible Light 15h 30m
Length of Day
14h 26m
Waning Gibbous, 83% of the Moon is Illuminated
May 9
Waning Gibbous
May 12
Last Quarter
May 20
New
May 28
First Quarter
Jun 4
Full

Hourly Weather History & Observations

Time (EDT) Temp. Dew Point Humidity Pressure Visibility Wind Dir Wind Speed Gust Speed Precip Events Conditions
12:51 AM 59.0 °F 55.9 °F 90% 29.79 in 10.0 mi South 8.1 mph - N/A   Overcast
1:51 AM 59.0 °F 57.0 °F 93% 29.79 in 10.0 mi South 9.2 mph - N/A   Overcast
2:51 AM 59.0 °F 57.0 °F 93% 29.77 in 9.0 mi South 9.2 mph - N/A   Overcast
3:51 AM 57.9 °F 57.0 °F 97% 29.75 in 8.0 mi South 5.8 mph - N/A   Overcast
4:51 AM 57.9 °F 55.9 °F 93% 29.74 in 8.0 mi South 8.1 mph - N/A   Overcast
5:51 AM 57.9 °F 55.9 °F 93% 29.74 in 7.0 mi South 5.8 mph - N/A   Overcast
6:51 AM 57.9 °F 55.9 °F 93% 29.74 in 5.0 mi South 10.4 mph - N/A   Overcast
7:51 AM 59.0 °F 57.0 °F 93% 29.74 in 7.0 mi South 5.8 mph - N/A   Overcast
8:51 AM 60.1 °F 57.0 °F 90% 29.74 in 7.0 mi South 6.9 mph - N/A   Overcast
9:30 AM 59.0 °F 57.2 °F 94% 29.74 in 2.0 mi SW 5.8 mph - 0.00 in   Light Drizzle
9:40 AM 59.0 °F 57.2 °F 94% 29.74 in 1.5 mi Calm Calm - 0.01 in   Light Drizzle
9:51 AM 59.0 °F 57.9 °F 96% 29.74 in 1.5 mi SSW 3.5 mph - 0.01 in   Light Drizzle
10:17 AM 59.0 °F 57.2 °F 94% 29.73 in 1.5 mi South 3.5 mph - 0.00 in   Light Drizzle
10:31 AM 60.8 °F 57.2 °F 88% 29.73 in 6.0 mi SSW 3.5 mph - 0.00 in   Overcast
10:51 AM 61.0 °F 57.9 °F 90% 29.73 in 10.0 mi Calm Calm - 0.00 in   Overcast
11:38 AM 62.6 °F 57.2 °F 82% 29.72 in 10.0 mi Calm Calm - N/A   Overcast
11:51 AM 63.0 °F 57.9 °F 84% 29.72 in 10.0 mi Calm Calm - N/A   Overcast
12:27 PM 64.4 °F 57.2 °F 77% 29.71 in 10.0 mi SW 3.5 mph - N/A   Overcast
12:51 PM 66.9 °F 57.9 °F 73% 29.70 in 10.0 mi Calm Calm - N/A   Overcast
1:20 PM 68.0 °F 57.2 °F 68% 29.69 in 10.0 mi NNE 4.6 mph - N/A   Mostly Cloudy
1:51 PM 68.0 °F 55.9 °F 65% 29.69 in 10.0 mi North 3.5 mph - N/A   Overcast
2:51 PM 68.0 °F 55.0 °F 63% 29.67 in 10.0 mi NNE 4.6 mph - N/A   Overcast
3:51 PM 69.1 °F 55.0 °F 61% 29.65 in 10.0 mi Calm Calm - N/A   Overcast
4:51 PM 69.1 °F 55.0 °F 61% 29.64 in 10.0 mi Calm Calm - N/A   Overcast
5:51 PM 66.9 °F 57.0 °F 70% 29.62 in 10.0 mi ESE 3.5 mph - 0.00 in Rain Light Rain
6:51 PM 66.0 °F 59.0 °F 78% 29.62 in 10.0 mi Calm Calm - 0.00 in   Mostly Cloudy
7:35 PM 64.4 °F 53.6 °F 68% 29.63 in 10.0 mi NW 12.7 mph - N/A   Overcast
7:45 PM 60.8 °F 55.4 °F 82% 29.63 in 6.0 mi NNW 8.1 mph - 0.04 in Rain Light Rain
7:51 PM 60.1 °F 55.9 °F 86% 29.63 in 10.0 mi NNW 8.1 mph - 0.07 in   Overcast
8:51 PM 59.0 °F 55.9 °F 90% 29.63 in 9.0 mi NE 3.5 mph - N/A   Overcast
9:51 PM 59.0 °F 55.9 °F 90% 29.63 in 7.0 mi NE 3.5 mph - 0.00 in   Overcast
10:51 PM 57.9 °F 55.9 °F 93% 29.60 in 7.0 mi Calm Calm - N/A   Overcast